Zurück zum Katalog

TJS-7

AktivKommunikationGEO
NORAD 49115·PAYLOAD·🇨🇳 China

Gestartet Aug 24, 2021 von Xichang Satellite Launch Center

Loading…

TLE

AktuellSource: Space-Track

Epoche: Sep 14, 2026, 15:02 UTC

1 49115U 21077A   26257.62675458 -.00000132  00000-0  00000-0 0  9999
2 49115   0.1323 261.0249 0001831 102.7869 115.9128  1.00273561 10442

Verfolge TJS-7 in Echtzeit mit AllMySat

Download on the App Store